COSMOS 1275 DEB, 13026

Orbit data source: Space-Track

COSMOS 1275 DEB, 13026 is space debris in LEO originally from a launch on Thu, 04 Jun 1981 UTC launched from the Plesetsk Missile And Space Complex (PKMTR). Debris objects in space refer to the collection of defunct objects orbiting the Earth. Examples of debris include non-operational satellites, rocket bodies, and fragments generated from explosions, collisions, or faulty payload assembly.

Loading next visibility...
Identifier
13026, 1981-053EX
Orbit
LEO
Country
Flag of CISCIS
Related business
Manufacturer
Unknown
Mission
Spacecraft
Bus & Motor
Unknown
Mass
Unknown
Launch date (UTC)
1981-06-04 (45 years ago)
Launch vehicle
Unknown
Launch site
Plesetsk Missile And Space Complex (PKMTR)
Object type
Payload
Rocket body
Debris
Shape & HBR
Unknown shape, 0.1 m
Radar Cross Section
Small (<0.1 m²)

Expand to show TLE details & history
Last TLE update: 10 hours ago

TLE from 10 hours ago
0 COSMOS 1275 DEB
1 13026U 81053EX  26124.21401563  .00026493  00000-0  28783-2 0  9990
2 13026  82.9146 219.3464 0004431 239.4408 120.6374 14.87973673289068
Epoch: 2026-05-04T05:08Z
TLE epoch observation values (Epoch: 2026-05-04T05:08:10.950Z)
Latitude
0.00001°
Longitude
-79.80565°
Altitude
608.901 km
Speed
7.554 km/s
True Right ascension
14h 37m 23s
True Declination
0° 00' 00"
Sunlit
Object was in full shadow at epoch
Visualization orbit readout
Latitude
Unknown
Longitude
Unknown
Altitude
Unknown
Speed
Unknown
Apparent Right ascension
Unknown
Apparent Declination
Unknown
Sunlit
N/A
Visualization observer readout
Local Sidereal Time
23:22:24
Azimuth
Unknown
Elevation
Unknown
Doppler factor
Unknown
Orbital elements
Apogee altitude
604.356 km
Perigee altitude
598.17 km
Semi-major axis
6,979.4 km
Eccentricity
0.00044
Inclination
82.9146°
RAAN
219.3464°
Arg. of periapsis
239.4408°
True anomaly
120.68108°
Mean anomaly
120.6374°
Eccentric anomaly
120.65924°
Mean motion
3.72234 °/min
Orbital period
96.71 mins
BSTAR
0.0028783
Loading maneuver chart data...
Computing Atmospheric mass density...
Loading historical data...
Loading historical data...
Loading historical data...
Loading historical data...
Loading historical data...
Loading historical data...
Loading historical data...

Documentation

Showing up to 5 results
|